Date String (YYYY-MM-DD hh:mm:ss) UTC,Instrument flags,Ambient pressure (hPa),Sample flow (lpm),Bypass flow (lpm),Sample temperature (°C),Ambient temperature (°C),ASC tube jacket temperature (°C),LED temperature (°C),Box temperature (°C),Sample RH (%),Span deviation,Mass concentration (μg/m³),Mass concentration (μg/m³),Mass concentration (μg/m³)
DateTimeUTC,F1_M11,P_M11,Q1_M11,Q2_M11,T1_M11,T2_M11,T3_M11,T4_M11,T5_M11,U1_M11,ZSPAN_M11,X0_M11,X2_M11,X1_M11
2022-01-17 05:00:00,,0826.7,5.01,0.00,23.3,22.5,00.0,32.4,25.0,09.8,0000.0,0006.80,0003.21,0002.72
2022-01-17 05:01:00,,0826.7,5.00,0.00,23.3,22.5,00.0,32.4,25.0,09.8,0000.0,0007.05,0003.20,0002.71
2022-01-17 05:02:00,,0826.6,5.00,0.00,23.3,22.5,00.0,32.4,25.0,09.8,0000.0,0007.78,0003.22,0002.72
2022-01-17 05:03:00,,0826.7,4.99,0.00,23.3,22.5,00.0,32.4,25.0,09.8,0000.0,0008.19,0003.25,0002.73
2022-01-17 05:04:00,,0826.6,5.01,0.00,23.3,22.5,00.0,32.4,25.0,09.8,0000.0,0008.14,0003.28,0002.75
2022-01-17 05:05:00,,0826.6,4.98,0.00,23.2,22.5,00.0,32.4,24.9,09.9,0000.0,0008.23,0003.30,0002.77
2022-01-17 05:06:00,,0826.7,5.01,0.00,23.2,22.5,00.0,32.4,25.0,09.9,0000.0,0008.45,0003.31,0002.79
2022-01-17 05:07:00,,0826.7,4.99,0.00,23.2,22.5,00.0,32.3,25.0,09.9,0000.0,0008.39,0003.30,0002.79
2022-01-17 05:08:00,,0826.6,5.01,0.00,23.2,22.5,00.0,32.3,24.9,09.9,0000.0,0008.34,0003.30,0002.81
2022-01-17 05:09:00,,0826.6,4.99,0.00,23.2,22.4,00.0,32.3,24.9,09.9,0000.0,0008.54,0003.32,0002.82
2022-01-17 05:10:00,,0826.6,5.02,0.00,23.2,22.4,00.0,32.3,24.9,09.9,0000.0,0008.57,0003.32,0002.83
2022-01-17 05:11:00,,0826.6,5.00,0.00,23.2,22.4,00.0,32.3,24.9,09.9,0000.0,0008.29,0003.32,0002.84
2022-01-17 05:12:00,,0826.6,4.99,0.00,23.1,22.4,00.0,32.3,24.9,09.9,0000.0,0008.27,0003.34,0002.85
2022-01-17 05:13:00,,0826.6,5.02,0.00,23.1,22.4,00.0,32.3,24.9,10.0,0000.0,0007.90,0003.34,0002.84
2022-01-17 05:14:00,,0826.6,5.00,0.00,23.1,22.4,00.0,32.3,24.9,10.0,0000.0,0007.04,0003.34,0002.85
2022-01-17 05:15:00,,0826.6,5.01,0.00,23.1,22.4,00.0,32.3,24.9,10.0,0000.0,0006.91,0003.35,0002.85
2022-01-17 05:16:00,,0826.6,5.00,0.00,23.1,22.4,00.0,32.2,24.9,10.0,0000.0,0006.56,0003.33,0002.84
2022-01-17 05:17:00,,0826.7,4.98,0.00,23.1,22.4,00.0,32.2,24.9,10.0,0000.0,0006.30,0003.33,0002.84
2022-01-17 05:18:00,,0826.6,5.01,0.00,23.1,22.4,00.0,32.2,24.9,10.0,0000.0,0006.46,0003.34,0002.84
2022-01-17 05:19:00,,0826.6,4.99,0.00,23.1,22.4,00.0,32.2,24.8,10.0,0000.0,0006.73,0003.33,0002.82
2022-01-17 05:20:00,,0826.7,5.01,0.00,23.1,22.3,00.0,32.2,24.8,10.0,0000.0,0006.35,0003.33,0002.82
2022-01-17 05:21:00,,0826.7,4.99,0.00,23.1,22.3,00.0,32.2,24.8,10.0,0000.0,0006.15,0003.33,0002.81
2022-01-17 05:22:00,,0826.6,5.01,0.00,23.1,22.3,00.0,32.2,24.8,10.0,0000.0,0006.43,0003.34,0002.81
2022-01-17 05:23:00,,0826.6,5.00,0.00,23.1,22.3,00.0,32.2,24.8,10.0,0000.0,0006.41,0003.35,0002.84
2022-01-17 05:24:00,,0826.6,5.00,0.00,23.0,22.3,00.0,32.1,24.8,10.0,0000.0,0006.22,0003.34,0002.85
2022-01-17 05:25:00,,0826.6,5.02,0.00,23.0,22.3,00.0,32.1,24.8,10.0,0000.0,0006.01,0003.31,0002.85
2022-01-17 05:26:00,,0826.6,4.99,0.00,23.0,22.3,00.0,32.1,24.8,10.0,0000.0,0005.98,0003.30,0002.86
2022-01-17 05:27:00,,0826.6,4.99,0.00,23.0,22.3,00.0,32.1,24.8,10.0,0000.0,0006.18,0003.28,0002.87
2022-01-17 05:28:00,,0826.5,5.01,0.00,23.0,22.3,00.0,32.1,24.8,10.0,0000.0,0006.64,0003.27,0002.87
2022-01-17 05:29:00,,0826.5,4.99,0.00,23.0,22.2,00.0,32.1,24.8,10.0,0000.0,0006.81,0003.26,0002.88
2022-01-17 05:30:00,,0826.5,5.02,0.00,23.0,22.3,00.0,32.1,24.8,10.0,0000.0,0006.58,0003.27,0002.88
2022-01-17 05:31:00,,0826.5,4.99,0.00,23.0,22.2,00.0,32.1,24.7,10.0,0000.0,0006.53,0003.25,0002.88
2022-01-17 05:32:00,,0826.5,5.01,0.00,23.0,22.2,00.0,32.1,24.7,10.0,0000.0,0007.38,0003.28,0002.89
2022-01-17 05:33:00,,0826.5,4.98,0.00,23.0,22.2,00.0,32.1,24.7,10.0,0000.0,0007.56,0003.31,0002.90
2022-01-17 05:34:00,,0826.5,5.00,0.00,22.9,22.2,00.0,32.1,24.7,10.0,0000.0,0007.65,0003.30,0002.87
2022-01-17 05:35:00,,0826.5,4.99,0.00,22.9,22.2,00.0,32.0,24.7,10.0,0000.0,0007.67,0003.30,0002.86
2022-01-17 05:36:00,,0826.5,5.01,0.00,22.9,22.2,00.0,32.0,24.7,10.0,0000.0,0007.69,0003.30,0002.84
2022-01-17 05:37:00,,0826.5,5.01,0.00,22.9,22.2,00.0,32.0,24.7,10.1,0000.0,0008.17,0003.30,0002.81
2022-01-17 05:38:00,,0826.5,5.01,0.00,22.9,22.1,00.0,32.0,24.6,10.1,0000.0,0008.16,0003.33,0002.81
2022-01-17 05:39:00,,0826.5,4.99,0.00,22.9,22.1,00.0,32.0,24.6,10.2,0000.0,0007.77,0003.32,0002.80
2022-01-17 05:40:00,,0826.5,5.00,0.00,22.9,22.1,00.0,32.0,24.6,10.2,0000.0,0007.66,0003.30,0002.77
2022-01-17 05:41:00,,0826.5,5.01,0.00,22.8,22.1,00.0,32.0,24.6,10.2,0000.0,0008.62,0003.28,0002.74
2022-01-17 05:42:00,,0826.5,5.00,0.00,22.8,22.1,00.0,32.0,24.6,10.2,0000.0,0008.75,0003.29,0002.72
2022-01-17 05:43:00,,0826.5,5.00,0.00,22.8,22.1,00.0,32.0,24.6,10.2,0000.0,0008.24,0003.25,0002.68
2022-01-17 05:44:00,,0826.5,4.99,0.00,22.8,22.1,00.0,32.0,24.6,10.2,0000.0,0007.81,0003.17,0002.62
2022-01-17 05:45:00,,0826.4,5.00,0.00,22.8,22.1,00.0,31.9,24.5,10.2,0000.0,0008.15,0003.14,0002.59
2022-01-17 05:46:00,,0826.4,5.01,0.00,22.8,22.0,00.0,31.9,24.5,10.2,0000.0,0008.24,0003.10,0002.56
2022-01-17 05:47:00,,0826.3,4.99,0.00,22.8,22.0,00.0,31.9,24.5,10.2,0000.0,0008.43,0003.10,0002.54
2022-01-17 05:48:00,,0826.3,4.99,0.00,22.8,22.0,00.0,31.9,24.5,10.2,0000.0,0008.10,0003.07,0002.51
2022-01-17 05:49:00,,0826.2,5.02,0.00,22.7,22.0,00.0,31.9,24.5,10.2,0000.0,0007.93,0003.02,0002.49
2022-01-17 05:50:00,,0826.2,4.98,0.00,22.7,22.0,00.0,31.9,24.5,10.2,0000.0,0007.90,0002.97,0002.44
2022-01-17 05:51:00,,0826.2,5.01,0.00,22.7,22.0,00.0,31.9,24.5,10.2,0000.0,0007.70,0002.90,0002.40
2022-01-17 05:52:00,,0826.2,5.00,0.00,22.7,21.9,00.0,31.9,24.4,10.2,0000.0,0006.16,0002.84,0002.39
2022-01-17 05:53:00,,0826.2,5.00,0.00,22.7,21.9,00.0,31.8,24.4,10.2,0000.0,0005.60,0002.76,0002.35
2022-01-17 05:54:00,,0826.2,5.01,0.00,22.7,21.9,00.0,31.8,24.4,10.2,0000.0,0005.95,0002.74,0002.32
2022-01-17 05:55:00,,0826.2,4.99,0.00,22.7,21.9,00.0,31.8,24.4,10.2,0000.0,0007.01,0002.75,0002.29
2022-01-17 05:56:00,,0826.2,5.00,0.00,22.7,21.9,00.0,31.8,24.4,10.2,0000.0,0006.29,0002.76,0002.25
2022-01-17 05:57:00,,0826.2,5.00,0.00,22.7,21.9,00.0,31.8,24.4,10.2,0000.0,0006.10,0002.75,0002.21
2022-01-17 05:58:00,,0826.2,4.99,0.00,22.7,21.9,00.0,31.8,24.5,10.2,0000.0,0005.64,0002.71,0002.17
2022-01-17 05:59:00,,0826.1,4.99,0.00,22.7,21.9,00.0,31.8,24.4,10.2,0000.0,0005.33,0002.65,0002.14
